Weather History for KFQD - October, 2013

Change the Weather History Date:

Saturday, October 19, 2013

  Actual Average (KAVL) Record (KAVL)
Temperature  
Mean Temperature 56 °F 55 °F  
Max Temperature 62 °F 67 °F 83 °F (1938)
Min Temperature 49 °F 43 °F 27 °F (1976)
Degree Days  
Heating Degree Days 10 10  
Month to date heating degree days 138  
Since 1 July heating degree days 195  
Cooling Degree Days 0 0  
Month to date cooling degree days 7  
Year to date cooling degree days 859  
Growing Degree Days 6 (Base 50)    
Moisture  
Dew Point 56 °F    
Average Humidity 95    
Maximum Humidity 100    
Minimum Humidity 81    
Precipitation  
Precipitation 0.02 in 0.08 in 1.24 in (1968)
Month to date precipitation 1.82  
Year to date precipitation 37.24  
Snow  
Snow 0.00 in 0.00 in 0.00 in ()
Month to date snowfall 0.0  
Since 1 July snowfall 0.0  
Since 1 September snowfall 0.0  
Snow Depth -    
Sea Level Pressure  
Sea Level Pressure 29.94 in    
Wind  
Wind Speed 0 mph (SW)    
Max Wind Speed 6 mph    
Max Gust Speed -    
Visibility 6 miles    
Events Fog , Rain    
T = Trace of Precipitation, MM = Missing Value Source: NWS Daily Summary

Daily Weather History Graph

Daily Weather History Graph

Search for Another Location

Airport or City:

Trip Planner

Search our weather history database for the weather conditions in past years. The results will help you decide how hot, cold, wet, or windy it might be!

Date:

Astronomy

Oct. 19, 2013 Rise Set
Actual Time 7:37 AM EDT 6:47 PM EDT
Civil Twilight 7:11 AM EDT 7:12 PM EDT
Nautical Twilight 6:42 AM EDT 7:42 PM EDT
Astronomical Twilight 6:12 AM EDT 8:11 PM EDT
Moon 7:16 PM EDT (10/19) 8:11 AM EDT (10/19)
Length of Visible Light 12h 00m
Length of Day
11h 09m
Waxing Gibbous, 99% of the Moon is Illuminated
Oct 19
Waxing Gibbous
Oct 26
Last Quarter
Nov 3
New
Nov 10
First Quarter
Nov 17
Full

Hourly Weather History & Observations

Time (EDT) Temp. Dew Point Humidity Pressure Visibility Wind Dir Wind Speed Gust Speed Precip Events Conditions
12:15 AM 56.5 °F 55.8 °F 97% 29.99 in 10.0 mi Calm Calm - N/A   Overcast
12:35 AM 57.2 °F 55.9 °F 96% 29.99 in 10.0 mi Calm Calm - N/A   Overcast
12:55 AM 57.2 °F 56.1 °F 96% 29.99 in 10.0 mi Calm Calm - N/A   Overcast
1:15 AM 57.6 °F 55.9 °F 94% 29.99 in 10.0 mi Calm Calm - N/A   Overcast
1:35 AM 57.0 °F 55.8 °F 96% 29.99 in 10.0 mi Calm Calm - N/A   Overcast
1:55 AM 56.8 °F 55.9 °F 97% 29.98 in 10.0 mi Calm Calm - N/A   Overcast
2:15 AM 57.6 °F 56.3 °F 96% 29.98 in 10.0 mi Calm Calm - N/A   Overcast
2:35 AM 57.4 °F 56.5 °F 97% 29.97 in 7.0 mi Calm Calm - N/A   Overcast
2:55 AM 57.4 °F 56.3 °F 96% 29.97 in 7.0 mi Calm Calm - N/A   Overcast
3:15 AM 58.1 °F 56.5 °F 94% 29.96 in 10.0 mi Calm Calm - N/A   Overcast
3:35 AM 57.6 °F 56.3 °F 96% 29.95 in 7.0 mi Calm Calm - N/A   Overcast
3:55 AM 57.6 °F 56.3 °F 96% 29.95 in 10.0 mi Calm Calm - N/A   Overcast
4:15 AM 57.7 °F 56.5 °F 96% 29.95 in 10.0 mi Calm Calm - N/A   Overcast
4:35 AM 57.4 °F 56.3 °F 96% 29.94 in 7.0 mi Calm Calm - N/A Rain Light Rain
4:55 AM 57.6 °F 56.5 °F 96% 29.94 in 7.0 mi Calm Calm - N/A Rain Light Rain
5:15 AM 57.7 °F 56.7 °F 96% 29.95 in 7.0 mi Calm Calm - 0.01 in Rain Light Rain
5:35 AM 57.6 °F 57.0 °F 98% 29.94 in 5.0 mi Calm Calm - 0.01 in Rain Light Rain
5:55 AM 57.4 °F 57.2 °F 99% 29.94 in 3.0 mi Calm Calm - 0.01 in   Overcast
6:15 AM 57.6 °F 57.4 °F 99% 29.94 in 0.8 mi Calm Calm - N/A   Overcast
6:35 AM 57.6 °F 57.4 °F 99% 29.94 in 0.2 mi SSE 4.6 mph - N/A Fog Fog
6:55 AM 57.6 °F 57.6 °F 100% 29.94 in 0.5 mi Calm Calm - N/A Fog Fog
7:15 AM 57.6 °F 57.6 °F 100% 29.95 in 0.5 mi Calm Calm - N/A Fog Fog
7:35 AM 57.6 °F 57.6 °F 100% 29.95 in 0.5 mi Calm Calm - N/A Rain Light Rain
7:55 AM 57.9 °F 57.9 °F 100% 29.94 in 0.2 mi Calm Calm - N/A   Light Drizzle
8:15 AM 57.7 °F 57.7 °F 100% 29.94 in 0.2 mi Calm Calm - N/A   Light Drizzle
8:35 AM 58.1 °F 58.1 °F 100% 29.95 in 0.2 mi Calm Calm - N/A   Light Drizzle
8:55 AM 58.1 °F 58.1 °F 100% 29.95 in 0.2 mi Calm Calm - N/A   Light Drizzle
9:15 AM 58.1 °F 58.1 °F 100% 29.95 in 0.2 mi Calm Calm - N/A Fog Fog
9:35 AM 58.5 °F 58.5 °F 100% 29.95 in 0.2 mi Calm Calm - N/A Fog Fog
9:55 AM 58.6 °F 58.6 °F 100% 29.94 in 0.8 mi Calm Calm - N/A   Overcast
10:15 AM 59.0 °F 59.0 °F 100% 29.96 in 2.5 mi Calm Calm - N/A   Overcast
10:35 AM 59.0 °F 58.8 °F 99% 29.95 in 3.0 mi Calm Calm - N/A Rain Light Rain
10:55 AM 59.0 °F 58.5 °F 98% 29.95 in 4.0 mi SW 3.5 mph - N/A   Overcast
11:15 AM 59.0 °F 58.3 °F 97% 29.95 in 5.0 mi SSW 3.5 mph - N/A   Overcast
11:35 AM 59.4 °F 58.5 °F 97% 29.94 in 5.0 mi Calm Calm - N/A   Overcast
11:55 AM 59.7 °F 58.5 °F 96% 29.94 in 5.0 mi SSW 3.5 mph - N/A   Overcast
12:15 PM 60.1 °F 59.0 °F 96% 29.94 in 5.0 mi Calm Calm - N/A   Overcast
12:35 PM 60.4 °F 58.5 °F 93% 29.92 in 7.0 mi Calm Calm - N/A   Overcast
12:55 PM 60.8 °F 58.6 °F 93% 29.92 in 7.0 mi Calm Calm - N/A   Mostly Cloudy
2:55 PM 62.4 °F 57.9 °F 85% 29.89 in 10.0 mi SSW 3.5 mph - N/A   Mostly Cloudy
3:15 PM 62.6 °F 57.4 °F 83% 29.88 in 10.0 mi Calm Calm - N/A   Mostly Cloudy
3:35 PM 62.2 °F 57.6 °F 85% 29.90 in 10.0 mi Calm Calm - N/A Rain Light Rain
3:55 PM 61.7 °F 58.5 °F 89% 29.90 in 10.0 mi Calm Calm - 0.01 in Rain Light Rain
4:15 PM 61.9 °F 57.0 °F 84% 29.89 in 10.0 mi South 5.8 mph - N/A   Mostly Cloudy
4:35 PM 61.5 °F 56.3 °F 83% 29.89 in 10.0 mi South 3.5 mph - N/A   Mostly Cloudy
4:55 PM 61.7 °F 55.9 °F 81% 29.89 in 10.0 mi Calm Calm - N/A   Scattered Clouds
5:15 PM 61.3 °F 55.9 °F 82% 29.89 in 10.0 mi Calm Calm - N/A   Clear
5:35 PM 61.2 °F 55.9 °F 83% 29.90 in 10.0 mi Calm Calm - N/A   Clear
5:55 PM 61.0 °F 56.1 °F 84% 29.89 in 10.0 mi Calm Calm - N/A   Clear
6:15 PM 60.8 °F 56.3 °F 85% 29.90 in 10.0 mi WNW 5.8 mph - N/A   Clear
6:35 PM 60.8 °F 56.5 °F 86% 29.91 in 10.0 mi Calm Calm - N/A   Clear
6:55 PM 59.0 °F 56.7 °F 92% 29.91 in 10.0 mi Calm Calm - N/A   Clear
7:15 PM 58.6 °F 55.9 °F 91% 29.92 in 10.0 mi Calm Calm - N/A   Clear
7:35 PM 57.6 °F 55.6 °F 93% 29.92 in 10.0 mi Calm Calm - N/A   Clear
7:55 PM 57.4 °F 55.2 °F 92% 29.92 in 10.0 mi Calm Calm - N/A   Clear
8:15 PM 55.8 °F 54.5 °F 96% 29.93 in 10.0 mi Calm Calm - N/A   Clear
8:35 PM 54.9 °F 54.1 °F 97% 29.93 in 7.0 mi Calm Calm - N/A   Clear
8:55 PM 54.5 °F 54.1 °F 99% 29.93 in 3.0 mi Calm Calm - N/A   Clear
9:15 PM 53.6 °F 53.6 °F 100% 29.93 in 4.0 mi Calm Calm - N/A   Clear
9:35 PM 53.2 °F 53.1 °F 99% 29.94 in 4.0 mi SW 3.5 mph - N/A   Clear
9:55 PM 52.5 °F 52.3 °F 99% 29.94 in 7.0 mi Calm Calm - N/A   Clear
10:15 PM 52.7 °F 52.3 °F 99% 29.94 in 7.0 mi Calm Calm - N/A   Clear
10:35 PM 51.6 °F 51.1 °F 98% 29.95 in 5.0 mi South 4.6 mph - N/A   Scattered Clouds
10:55 PM 50.5 °F 50.5 °F 100% 29.95 in 4.0 mi NW 3.5 mph - N/A   Mostly Cloudy
11:15 PM 50.5 °F 50.5 °F 100% 29.95 in 0.2 mi Calm Calm - N/A Fog Fog
11:35 PM 49.6 °F 49.6 °F 100% 29.96 in 0.2 mi WSW 3.5 mph - N/A Fog Fog
11:55 PM 49.6 °F 49.3 °F 99% 29.96 in 10.0 mi WNW 3.5 mph - N/A   Scattered Clouds